Hourly Data Report for September 19, 2017

All times are specified in Local Standard Time (LST). Add 1 hour to adjust for Daylight Saving Time where and when it is observed.

KITCHENER/WATERLOO
ONTARIO

43°27'39.000" N
80°22'43.000" W
321.60 m
6144239
71368
YKF

Download Data

Hourly Data (September 2017)
Hourly Data Report for September 19, 2017
Temp Definition
°C
Dew Point Temp Definition
°C
Rel Hum Definition
%
Wind Dir Definition
10's deg

Wind Spd Definition
km/h
Visibility Definition
km
Stn Press Definition
kPa
Hmdx Definition


Wind Chill Definition


Weather Definition


TIME
00:00 Legend Double Dagger 17.8 17.2 96 LegendMM 4 16.1 97.96     LegendNANA
01:00 Legend Double Dagger 17.9 17.4 97 9 4 16.1 97.93     LegendNANA
02:00 Legend Double Dagger 17.4 17.1 98 LegendMM 4 6.4 97.92     Fog
03:00 Legend Double Dagger 17.6 17.3 98   0 4.8 97.90     Fog
04:00 Legend Double Dagger 17.8 17.5 98 LegendMM 4 4.8 97.89     Fog
05:00 Legend Double Dagger 17.3 17.0 98 8 4 4.8 97.90     Fog
06:00 Legend Double Dagger 17.4 17.1 98 36 5 4.8 97.93     Fog
07:00 Legend Double Dagger 17.9 17.4 97 4 5 6.4 97.95     Fog
08:00 Legend Double Dagger 19.0 17.9 93 6 8 11.3 97.93     LegendNANA
09:00 Legend Double Dagger 21.3 18.6 84 8 11 16.1 97.95 28   LegendNANA
10:00 Legend Double Dagger 23.2 18.5 75 8 11 16.1 97.96 30   LegendNANA
11:00 Legend Double Dagger 23.5 18.3 72 8 11 16.1 97.94 30   LegendNANA
12:00 Legend Double Dagger 24.7 18.5 68 4 5 16.1 97.91 31   LegendNANA
13:00 Legend Double Dagger 24.5 18.6 69 10 15 16.1 97.85 31   LegendNANA
14:00 Legend Double Dagger 25.4 18.5 65 13 15 16.1 97.79 32   LegendNANA
15:00 Legend Double Dagger 24.6 18.5 68 12 13 16.1 97.76 31   LegendNANA
16:00 Legend Double Dagger 23.2 19.4 79 18 8 16.1 97.76 30   Rain
17:00 Legend Double Dagger 21.0 20.0 94 32 11 6.4 97.80 29   Fog
18:00 Legend Double Dagger 19.6 18.5 93 LegendMM 4 16.1 97.81     Rain
19:00 Legend Double Dagger 19.3 18.3 94 3 4 9.7 97.82     Fog
20:00 Legend Double Dagger 19.0 18.5 97 34 8 2.8 97.87     Fog
21:00 Legend Double Dagger 18.8 18.2 96 31 5 2.8 97.85     Fog
22:00 Legend Double Dagger 17.9 17.6 98 5 4 1.6 97.85     Rain,Fog
23:00 Legend Double Dagger 16.8 16.6 99 8 9 0.2 97.84     Rain,Fog

Notes on Data Quality.

Legend

  • E = Estimated
  • M = Missing
  • NA = Not Available
  • ‡ = Partner data that is not subject to review by the National Climate Archives
Date modified: